Regional Weather Roundup
Issued by NWS Upton, NY

Current Version | Previous Version | Graphics & Text | Print | Product List | Glossary Off
Versions: 1 2 3 4 5 6 7 8 9 10 11 12 13 14 15 16 17 18 19 20 21 22 23 24 25 26 27 28 29 30 31 32 33 34 35 36 37 38 39 40 41 42 43 44 45 46 47 48 49 50

000
ASUS41 KOKX 111508
RWROKX

REGIONAL WEATHER ROUNDUP
NATIONAL WEATHER SERVICE NEW YORK NY
1000 AM EST MON DEC 11 2017

NOTE: "FAIR" INDICATES FEW OR NO CLOUDS BELOW 12,000 FEET WITH NO
SIGNIFICANT WEATHER AND/OR OBSTRUCTIONS TO VISIBILITY.

NYZ071-072-176-178-NJZ106-104-111600-
NEW YORK CITY METRO AREA

CITY           SKY/WX    TMP DP  RH WIND       PRES   REMARKS
Central Park   SUNNY     36  26  67 W8        30.05S WCI  30
Bronx Bot Gard   N/A     36  25  64 W14       30.04R WCI  27
Bronx Lehman C   N/A     36  27  69 W7          N/A  WCI  30
LaGuardia APRT MOSUNNY   38  23  55 W15       30.03S WCI  29
Queens College   N/A     36  27  69 W8          N/A  WCI  29
Kennedy INTL   MOSUNNY   36  27  69 W12       30.05S WCI  28
Breezy Point     N/A     36 N/A N/A W9G16       N/A  WCI  29
Brooklyn Coll    N/A     36  27  69 W10         N/A  WCI  28
Staten Island    N/A     36  28  75 SW6         N/A  WCI  31
Newark/Liberty MOSUNNY   37  28  70 W7        30.04S WCI  32
Teterboro      SUNNY     36  24  62 W6        30.03S WCI  31
$$

NYZ177-179-078>081-111600-
LONG ISLAND NEW YORK

CITY           SKY/WX    TMP DP  RH WIND       PRES   REMARKS
Jones Beach      N/A     37 N/A N/A W14         N/A  WCI  29
Wantagh          N/A     36  28  75 W12         N/A  WCI  27
Matinecock PT    N/A     37 N/A N/A W18         N/A  WCI  27
Farmingdale    SUNNY     36  26  67 W14       30.04S WCI  27
MacArthur/ISP  MOSUNNY   37  27  67 W10       30.02F WCI  30
Shirley        MOSUNNY   38  27  64 W10       30.03F WCI  31
Mt Sinai Harb    N/A    N/A N/A N/A W7G14       N/A
Westhampton    SUNNY     38  25  59 W13       30.04S WCI  30
East Hampton   CLOUDY    37  25  60 W13       30.02R WCI  29
Southold         N/A     37  28  70 W6          N/A  WCI  33
Montauk          N/A     38  27  64 W10G18    30.03R WCI  31
$$

NYZ052-065-067-111600-
HUDSON VALLEY

CITY           SKY/WX    TMP DP  RH WIND       PRES   REMARKS
White Plains   MOSUNNY   34  23  64 W12       30.00S WCI  25
Larchmont Harb   N/A     34 N/A N/A W12         N/A  WCI  25
Croton On Huds   N/A     36 N/A N/A W13         N/A  WCI  27
Somers           N/A     34  21  60 W6          N/A  WCI  29
Brewster         N/A     32  21  64 W6          N/A  WCI  26
Newburgh       SUNNY     32  25  74 W14       30.01R WCI  22
Montgomery     MOSUNNY   34  21  59 VRB6      29.99S WCI  29
Otisville        N/A     32  23  69 W6          N/A  WCI  26
Warwick          N/A     32  23  69 W8          N/A  WCI  25
Suffern          N/A     32  21  64 W6          N/A  WCI  26
Poughkeepsie   SUNNY     34  21  59 W10       30.01R WCI  26
Albany         PTSUNNY   33  21  61 SW5       29.99R WCI  29
$$

NJZ001-105-106-008-010-013-015-019>022-104-111600-
NEW JERSEY

CITY           SKY/WX    TMP DP  RH WIND       PRES   REMARKS
Newark/Liberty MOSUNNY   37  28  70 W7        30.04S WCI  32
Teterboro      SUNNY     36  24  62 W6        30.03S WCI  31
Caldwell       SUNNY     35  23  61 W7        30.03F WCI  29
Somerville     SUNNY     36  25  64 CALM      30.03S
Linden         FAIR      36  26  67 CALM      30.04F
Perth Amboy      N/A     36 N/A N/A W9          N/A  WCI  29
Sussex         SUNNY     34  22  61 VRB6      30.01R WCI  29
Andover        NOT AVBL
Trenton        SUNNY     37  24  59 W9        30.04S WCI  30
Millville      MOSUNNY   41  29  62 W7        30.08S
Atlantic City  PTSUNNY   40  27  59 W12       30.08R WCI  33
Wrightstown    SUNNY     36  29  76 CALM      30.04R
Toms River     MOSUNNY   37  32  82 W9        30.07S WCI  30
Belmar         SUNNY     36  28  73 W9        30.06  WCI  29
$$

PAZ047>061-062-071-111600-
EASTERN PENNSYLVANIA

CITY           SKY/WX    TMP DP  RH WIND       PRES   REMARKS
Philadelphia   MOSUNNY   39  23  52 W10       30.08R WCI  32
Allentown      SUNNY     35  21  56 W8        30.04R WCI  29
Scranton       CLOUDY    32  22  66 VRB5      30.00R WCI  27
$$

CTZ002-004>006-009-010-012-RIZ004-006-007-MAZ004-011-015-111600-
SOUTHERN NEW ENGLAND
 IN CT

CITY           SKY/WX    TMP DP  RH WIND       PRES   REMARKS
Bradley INTL   MOSUNNY   34  22  61 W5        29.98S WCI  30
Hartford       SUNNY     36  22  56 W7        30.00S WCI  30
Danbury        SUNNY     35  21  56 W10       30.01R WCI  27
Wtrbury/Oxford SUNNY     32  21  64 W9        29.98S WCI  24
Norwalk Harbor   N/A     34 N/A N/A W15G21      N/A  WCI  24
Bridgeport     SUNNY     37  23  56 W9        30.02S WCI  30
Meriden        SUNNY     34  21  59 VRB6      30.00S WCI  29
New Haven      MOSUNNY   37  22  54 W6        30.01S WCI  32
Chester        FAIR      37  21  52 NW10G18   29.99R WCI  30
Groton         SUNNY     38  23  55 W9        30.01R WCI  31
Wilimantic     SUNNY     35  23  61 W7        30.01R WCI  29

 IN RI

CITY           SKY/WX    TMP DP  RH WIND       PRES   REMARKS
Providence     PTSUNNY   35  27  72 W5        30.01R WCI  31
Block Island   CLOUDY    38  28  67 W15G21    30.01  WCI  29
Westerly       MOSUNNY   38  24  57 VRB6      30.02R WCI  33
 IN MA

CITY           SKY/WX    TMP DP  RH WIND       PRES   REMARKS
Boston         CLOUDY    34  23  64 SW13      29.98S WCI  25
Worcester      SUNNY     29  20  69 SW9       29.94R WCI  20
Westfield      SUNNY     34  21  59 W3        29.97S
Provincetown   PTSUNNY   38  25  59 W18G24    29.99S WCI  28
Nantucket      CLOUDY    40  32  73 W12G17    30.00S WCI  33
$$

ANZ330-335-338-340-345-350-353-355-111600-
COASTAL MARINE OBSERVATIONS


STATION/POSITION TIME  SKY/WX   TEMP    WIND        PRES    VSBY  WAVE
                                AIR SEA DIR/SP/G                  HT/PER
                 (UTC)          (F)     (DEG/KT/KT) (MB)    (MI)  (FT/S)
NY HARB ENTRANCE 1350            39 51  260/ 16/ 21 1016.8          3/ 9
20 S FIRE ISLAND 1350            39 53  280/ 16/ 19 1017.1          4/ 6
GREAT SOUTH BAY  1430            36 45  270/ 14/ 16   N/A
HUDSON CANYON    1350            42 56  290/ 16/ 19 1017.3          6/ 5
KINGS POINT      1424            36 45  320/ 12/ 13 1017.9
EXECUTION ROCKS  1430            40     230/ 14/ 19   N/A
WESTERN LI SOUND 1349            38     260/ 16/ 21   N/A           1/ 3
CENTRAL LI SOUND NOT AVBL
ROBBINS REEF     1424            34     240/  9/ 13 1017.9
$$


>>>>>>>>>>>>>>>>>>>>>>>>>>>> KEY <<<<<<<<<<<<<<<<<<<<<<<<<<<
>                                                          <
>     SKY/WX - Sky Condition/Present Weather               <
>     TMP    - Temperature in Fahrenheit                   <
>     DP     - Dew Point in Fahrenheit                     <
>     RH     - Relative Humidity in Percent                <
>     WIND   - Direction (from) and Speed in MPH           <
>     PRES   - Mean Sea Level Pressure (inches of Hg)      <
>     WCI    - Wind Chill Index                            <
>     VSB    - VISIBILITY IN MILES                         <
>     HX     - HEAT INDEX                                  <
>     TC     - TEMPERATURE IN CELSIUS                      <
>     VRB    - VARIABLE WIND DIRECTION                     <
>                                                          <
>>>>>>>>>>>>>>>>>>>>>>>>>>>> KEY <<<<<<<<<<<<<<<<<<<<<<<<<<<



USA.gov is the U.S. government's official web portal to all federal, state and local government web resources and services.